TimeEDT,TemperatureF,Dew PointF,Humidity,Sea Level PressureIn,VisibilityMPH,Wind Direction,Wind SpeedMPH,Gust SpeedMPH,PrecipitationIn,Events,Conditions,WindDirDegrees,DateUTC
12:52 AM,48.9,42.1,77,30.16,10.0,Calm,Calm,-,N/A,,Overcast,0,2012-10-10 04:52:00
1:52 AM,48.9,41.0,74,30.15,10.0,Calm,Calm,-,N/A,,Overcast,0,2012-10-10 05:52:00
2:27 AM,48.2,42.8,82,30.12,10.0,Calm,Calm,-,N/A,,Overcast,0,2012-10-10 06:27:00
2:52 AM,48.0,42.1,80,30.14,10.0,Calm,Calm,-,N/A,,Overcast,0,2012-10-10 06:52:00
3:52 AM,48.9,43.0,80,30.12,10.0,Calm,Calm,-,N/A,,Overcast,0,2012-10-10 07:52:00
4:52 AM,48.9,43.0,80,30.11,10.0,Calm,Calm,-,N/A,,Overcast,0,2012-10-10 08:52:00
5:52 AM,48.9,43.0,80,30.09,9.0,Calm,Calm,-,N/A,,Overcast,0,2012-10-10 09:52:00
6:27 AM,48.2,44.6,87,30.06,3.0,Calm,Calm,-,N/A,,Overcast,0,2012-10-10 10:27:00
6:52 AM,48.0,44.1,86,30.08,3.0,Calm,Calm,-,N/A,,Overcast,0,2012-10-10 10:52:00
7:20 AM,48.2,44.6,87,30.05,1.0,Calm,Calm,-,N/A,,Overcast,0,2012-10-10 11:20:00
7:40 AM,48.2,44.6,87,30.05,0.8,Calm,Calm,-,N/A,,Overcast,0,2012-10-10 11:40:00
7:52 AM,48.0,44.1,86,30.07,0.8,Calm,Calm,-,N/A,,Overcast,0,2012-10-10 11:52:00
8:22 AM,48.2,44.6,87,30.04,1.0,Calm,Calm,-,0.01,Rain,Light Rain,0,2012-10-10 12:22:00
8:31 AM,48.2,44.6,87,30.04,1.2,Calm,Calm,-,0.01,Rain,Light Rain,0,2012-10-10 12:31:00
8:49 AM,48.2,46.4,93,30.03,1.5,Calm,Calm,-,0.01,,Overcast,0,2012-10-10 12:49:00
8:52 AM,48.9,46.0,90,30.06,1.5,Calm,Calm,-,0.01,,Overcast,0,2012-10-10 12:52:00
9:08 AM,50.0,46.4,87,30.03,1.2,Calm,Calm,-,0.00,Rain,Light Rain,0,2012-10-10 13:08:00
9:26 AM,50.0,46.4,87,30.02,1.5,Variable,3.5,-,0.00,Rain,Light Rain,0,2012-10-10 13:26:00
9:39 AM,51.8,46.4,82,30.02,3.0,Calm,Calm,-,0.00,Rain,Light Rain,0,2012-10-10 13:39:00
9:52 AM,51.1,48.0,89,30.03,3.0,Calm,Calm,-,0.00,Rain,Light Rain,0,2012-10-10 13:52:00
10:02 AM,51.8,48.2,88,30.00,2.0,Variable,3.5,-,0.00,,Overcast,0,2012-10-10 14:02:00
10:52 AM,52.0,48.9,89,30.00,3.0,Calm,Calm,-,0.00,Rain,Light Rain,0,2012-10-10 14:52:00
12:01 PM,53.6,48.2,82,29.93,7.0,Variable,4.6,-,0.00,Rain,Light Rain,0,2012-10-10 16:01:00
12:42 PM,53.6,48.2,82,29.91,1.8,Variable,4.6,-,0.01,Rain,Light Rain,0,2012-10-10 16:42:00
12:50 PM,53.6,48.2,82,29.90,2.5,Calm,Calm,-,0.01,Rain,Light Rain,0,2012-10-10 16:50:00
12:52 PM,54.0,50.0,86,29.92,2.5,Calm,Calm,-,0.01,Rain,Light Rain,0,2012-10-10 16:52:00
1:07 PM,53.6,50.0,88,29.88,4.0,Variable,3.5,-,0.01,Rain,Light Rain,0,2012-10-10 17:07:00
1:15 PM,53.6,50.0,88,29.88,4.0,Calm,Calm,-,0.01,Rain,Light Rain,0,2012-10-10 17:15:00
1:29 PM,55.4,50.0,82,29.86,2.5,Calm,Calm,-,0.02,Rain,Light Rain,0,2012-10-10 17:29:00
1:39 PM,55.4,50.0,82,29.85,4.0,Variable,3.5,-,0.02,Rain,Light Rain,0,2012-10-10 17:39:00
1:52 PM,55.0,51.1,86,29.86,4.0,Variable,4.6,-,0.02,Rain,Light Rain,0,2012-10-10 17:52:00
2:03 PM,55.4,51.8,88,29.84,2.0,Calm,Calm,-,0.01,Rain,Light Rain,0,2012-10-10 18:03:00
2:22 PM,55.4,51.8,88,29.82,4.0,Variable,4.6,-,0.02,Rain,Light Rain,0,2012-10-10 18:22:00
2:52 PM,57.0,52.0,83,29.83,7.0,Variable,6.9,-,0.02,Rain,Light Rain,0,2012-10-10 18:52:00
3:52 PM,57.0,53.1,87,29.81,4.0,Calm,Calm,-,0.02,Rain,Light Rain,0,2012-10-10 19:52:00
4:08 PM,57.2,53.6,88,29.78,1.0,Calm,Calm,-,0.02,Rain,Rain,0,2012-10-10 20:08:00
4:17 PM,57.2,53.6,88,29.78,1.5,South,3.5,-,0.03,Rain,Light Rain,190,2012-10-10 20:17:00
4:24 PM,57.2,53.6,88,29.77,3.0,Calm,Calm,-,0.03,Rain,Light Rain,0,2012-10-10 20:24:00
4:34 PM,57.2,53.6,88,29.77,3.0,South,3.5,-,0.03,,Overcast,170,2012-10-10 20:34:00
4:37 PM,57.2,53.6,88,29.77,2.5,Calm,Calm,-,0.03,Rain,Light Rain,0,2012-10-10 20:37:00
4:52 PM,57.0,53.1,87,29.79,7.0,Calm,Calm,-,0.03,Rain,Light Rain,0,2012-10-10 20:52:00
5:04 PM,57.2,53.6,88,29.76,10.0,Calm,Calm,-,0.00,,Overcast,0,2012-10-10 21:04:00
5:37 PM,57.2,53.6,88,29.75,10.0,Calm,Calm,-,0.00,,Overcast,0,2012-10-10 21:37:00
5:52 PM,57.9,53.1,84,29.76,10.0,Calm,Calm,-,0.00,,Overcast,0,2012-10-10 21:52:00
6:19 PM,57.2,53.6,88,29.74,10.0,SSW,3.5,-,N/A,,Overcast,210,2012-10-10 22:19:00
6:52 PM,57.9,53.1,84,29.76,10.0,SSW,6.9,-,N/A,,Mostly Cloudy,210,2012-10-10 22:52:00
7:04 PM,57.2,53.6,88,29.74,10.0,SW,5.8,-,N/A,,Overcast,220,2012-10-10 23:04:00
7:15 PM,57.2,51.8,82,29.74,10.0,Variable,6.9,-,N/A,,Overcast,0,2012-10-10 23:15:00
7:41 PM,57.2,51.8,82,29.74,10.0,Variable,4.6,-,N/A,,Scattered Clouds,0,2012-10-10 23:41:00
7:52 PM,57.0,51.1,81,29.76,10.0,Variable,4.6,-,N/A,,Scattered Clouds,0,2012-10-10 23:52:00
8:52 PM,55.0,48.0,77,29.77,10.0,Variable,3.5,-,N/A,,Clear,0,2012-10-11 00:52:00
9:52 PM,54.0,46.9,77,29.80,10.0,Variable,5.8,-,N/A,,Mostly Cloudy,0,2012-10-11 01:52:00
10:52 PM,52.0,42.1,69,29.82,10.0,WNW,6.9,17.3,0.01,,Scattered Clouds,290,2012-10-11 02:52:00
11:52 PM,51.1,39.9,66,29.83,10.0,Variable,4.6,-,N/A,,Overcast,0,2012-10-11 03:52:00